Time,TemperatureF,DewpointF,PressureIn,WindDirection,WindDirectionDegrees,WindSpeedMPH,WindSpeedGustMPH,Humidity,HourlyPrecipIn,Conditions,Clouds,dailyrainin,SolarRadiationWatts/m^2,SoftwareType,DateUTC
2013-11-23 00:00:00,45.7,44.9,29.93,West,261,0.0,2.0,97,0.02,,---,0.17,0.00,VWS V14.01,2013-11-23 05:00:00,
2013-11-23 00:01:00,45.7,44.9,29.93,West,261,0.0,2.0,97,0.02,,---,0.17,0.00,VWS V14.01,2013-11-23 05:01:00,
2013-11-23 00:06:00,45.6,44.8,29.94,West,261,0.0,0.0,97,0.02,,---,0.00,0.00,VWS V14.01,2013-11-23 05:06:00,
2013-11-23 00:11:00,45.3,44.5,29.93,WNW,300,0.0,6.0,97,0.02,,---,0.00,0.00,VWS V14.01,2013-11-23 05:11:00,
2013-11-23 00:16:00,45.1,44.0,29.93,West,275,0.0,6.0,96,0.02,,---,0.00,0.00,VWS V14.01,2013-11-23 05:16:00,
2013-11-23 00:21:00,45.0,43.9,29.94,SE,127,0.0,6.0,96,0.02,,---,0.00,0.00,VWS V14.01,2013-11-23 05:21:00,
2013-11-23 00:26:00,44.8,43.5,29.93,ENE,65,0.0,6.0,95,0.02,,---,0.00,0.00,VWS V14.01,2013-11-23 05:26:00,
2013-11-23 00:30:00,44.6,43.3,29.94,West,260,3.0,6.0,95,0.02,,---,0.00,0.00,VWS V14.01,2013-11-23 05:30:00,
2013-11-23 00:31:00,44.7,43.4,29.93,NNW,332,1.0,6.0,95,0.02,,---,0.00,0.00,VWS V14.01,2013-11-23 05:31:00,
2013-11-23 00:36:00,44.4,42.8,29.94,NNW,337,0.0,4.0,94,0.00,,---,0.00,0.00,VWS V14.01,2013-11-23 05:36:00,
2013-11-23 00:41:00,44.2,42.3,29.94,NW,319,0.0,4.0,93,0.00,,---,0.00,0.00,VWS V14.01,2013-11-23 05:41:00,
2013-11-23 00:46:00,44.0,41.8,29.94,North,355,0.0,4.0,92,0.00,,---,0.00,0.00,VWS V14.01,2013-11-23 05:46:00,
2013-11-23 00:51:00,43.8,41.3,29.94,SSW,203,2.0,4.0,91,0.00,,---,0.00,0.00,VWS V14.01,2013-11-23 05:51:00,
2013-11-23 00:56:00,43.8,41.1,29.94,South,184,0.0,5.0,90,0.00,,---,0.00,0.00,VWS V14.01,2013-11-23 05:56:00,
2013-11-23 01:00:00,43.7,40.4,29.95,SSW,200,3.0,5.0,88,0.00,,---,0.00,0.00,VWS V14.01,2013-11-23 06:00:00,
2013-11-23 01:01:00,43.7,40.4,29.95,WSW,242,0.0,5.0,88,0.00,,---,0.00,0.00,VWS V14.01,2013-11-23 06:01:00,
2013-11-23 01:06:00,43.6,39.7,29.95,NNW,341,1.0,3.0,86,0.00,,---,0.00,0.00,VWS V14.01,2013-11-23 06:06:00,
2013-11-23 01:11:00,43.4,39.2,29.95,ENE,59,2.0,10.0,85,0.00,,---,0.00,0.00,VWS V14.01,2013-11-23 06:11:00,
2013-11-23 01:16:00,43.2,39.0,29.95,ENE,59,0.0,10.0,85,0.00,,---,0.00,0.00,VWS V14.01,2013-11-23 06:16:00,
2013-11-23 01:21:00,42.8,38.6,29.95,ENE,59,0.0,10.0,85,0.00,,---,0.00,0.00,VWS V14.01,2013-11-23 06:21:00,
2013-11-23 01:26:00,42.6,38.7,29.95,SSW,201,0.0,10.0,86,0.00,,---,0.00,0.00,VWS V14.01,2013-11-23 06:26:00,
2013-11-23 01:30:00,42.5,38.6,29.95,West,263,3.0,10.0,86,0.00,,---,0.00,0.00,VWS V14.01,2013-11-23 06:30:00,
2013-11-23 01:31:00,42.5,38.6,29.95,WSW,254,0.0,10.0,86,0.00,,---,0.00,0.00,VWS V14.01,2013-11-23 06:31:00,
2013-11-23 01:36:00,42.4,38.5,29.96,East,96,0.0,3.0,86,0.00,,---,0.00,0.00,VWS V14.01,2013-11-23 06:36:00,
2013-11-23 01:41:00,42.2,38.6,29.97,East,96,0.0,3.0,87,0.00,,---,0.00,0.00,VWS V14.01,2013-11-23 06:41:00,
2013-11-23 01:46:00,42.0,38.4,29.97,East,96,0.0,3.0,87,0.00,,---,0.00,0.00,VWS V14.01,2013-11-23 06:46:00,
2013-11-23 01:51:00,41.9,38.3,29.97,NNE,15,0.0,5.0,87,0.00,,---,0.00,0.00,VWS V14.01,2013-11-23 06:51:00,
2013-11-23 01:56:00,41.9,38.3,29.97,WNW,294,0.0,5.0,87,0.00,,---,0.00,0.00,VWS V14.01,2013-11-23 06:56:00,
2013-11-23 02:00:00,41.8,38.2,29.97,WSW,252,1.0,5.0,87,0.00,,---,0.00,0.00,VWS V14.01,2013-11-23 07:00:00,
2013-11-23 02:01:00,41.8,38.2,29.97,West,281,0.0,5.0,87,0.00,,---,0.00,0.00,VWS V14.01,2013-11-23 07:01:00,
2013-11-23 02:06:00,41.8,38.2,29.97,West,266,0.0,1.0,87,0.00,,---,0.00,0.00,VWS V14.01,2013-11-23 07:06:00,
2013-11-23 02:11:00,41.7,38.1,29.97,WNW,294,0.0,4.0,87,0.00,,---,0.00,0.00,VWS V14.01,2013-11-23 07:11:00,
2013-11-23 02:16:00,41.6,38.0,29.97,West,263,1.0,9.0,87,0.00,,---,0.00,0.00,VWS V14.01,2013-11-23 07:16:00,
2013-11-23 02:21:00,41.5,37.6,29.97,WNW,292,4.0,9.0,86,0.00,,---,0.00,0.00,VWS V14.01,2013-11-23 07:21:00,
2013-11-23 02:26:00,41.4,37.2,29.97,West,273,2.0,9.0,85,0.00,,---,0.00,0.00,VWS V14.01,2013-11-23 07:26:00,
2013-11-23 02:30:00,41.2,36.4,29.97,West,279,2.0,12.0,83,0.00,,---,0.00,0.00,VWS V14.01,2013-11-23 07:30:00,
2013-11-23 02:31:00,41.2,36.7,29.97,NW,306,0.0,12.0,84,0.00,,---,0.00,0.00,VWS V14.01,2013-11-23 07:31:00,
2013-11-23 02:36:00,41.1,36.3,29.97,South,182,0.0,4.0,83,0.00,,---,0.00,0.00,VWS V14.01,2013-11-23 07:36:00,
2013-11-23 02:41:00,40.8,36.0,29.97,South,182,0.0,4.0,83,0.00,,---,0.00,0.00,VWS V14.01,2013-11-23 07:41:00,
2013-11-23 02:46:00,40.6,35.8,29.98,South,182,0.0,4.0,83,0.00,,---,0.00,0.00,VWS V14.01,2013-11-23 07:46:00,
2013-11-23 02:51:00,40.5,35.5,29.98,NNE,29,2.0,6.0,82,0.00,,---,0.00,0.00,VWS V14.01,2013-11-23 07:51:00,
2013-11-23 02:56:00,40.4,35.0,29.98,NW,304,0.0,6.0,81,0.00,,---,0.00,0.00,VWS V14.01,2013-11-23 07:56:00,
2013-11-23 03:00:00,40.2,34.8,29.98,NNW,340,0.0,6.0,81,0.00,,---,0.00,0.00,VWS V14.01,2013-11-23 08:00:00,
2013-11-23 03:01:00,40.2,34.8,29.98,NNW,340,0.0,6.0,81,0.00,,---,0.00,0.00,VWS V14.01,2013-11-23 08:01:00,
2013-11-23 03:06:00,40.1,34.8,29.98,NNW,340,0.0,2.0,81,0.00,,---,0.00,0.00,VWS V14.01,2013-11-23 08:06:00,
2013-11-23 03:11:00,39.9,34.5,29.99,WSW,254,0.0,3.0,81,0.00,,---,0.00,0.00,VWS V14.01,2013-11-23 08:11:00,
2013-11-23 03:16:00,39.8,34.5,29.99,WNW,296,2.0,6.0,81,0.00,,---,0.00,0.00,VWS V14.01,2013-11-23 08:16:00,
2013-11-23 03:21:00,39.6,34.3,29.99,WSW,244,2.0,6.0,81,0.00,,---,0.00,0.00,VWS V14.01,2013-11-23 08:21:00,
2013-11-23 03:26:00,39.5,33.8,29.99,WNW,282,0.0,7.0,80,0.00,,---,0.00,0.00,VWS V14.01,2013-11-23 08:26:00,
2013-11-23 03:30:00,39.3,34.0,29.99,West,271,1.0,7.0,81,0.00,,---,0.00,0.00,VWS V14.01,2013-11-23 08:30:00,
2013-11-23 03:31:00,39.3,33.7,29.99,West,267,0.0,7.0,80,0.00,,---,0.00,0.00,VWS V14.01,2013-11-23 08:31:00,
2013-11-23 03:36:00,39.2,33.9,29.99,NW,314,2.0,3.0,81,0.00,,---,0.00,0.00,VWS V14.01,2013-11-23 08:36:00,
2013-11-23 03:41:00,39.1,33.8,29.99,NW,314,0.0,3.0,81,0.00,,---,0.00,0.00,VWS V14.01,2013-11-23 08:41:00,
2013-11-23 03:46:00,39.0,34.0,29.99,WNW,290,0.0,4.0,82,0.00,,---,0.00,0.00,VWS V14.01,2013-11-23 08:46:00,
2013-11-23 03:51:00,38.7,32.8,29.99,West,280,4.0,9.0,79,0.00,,---,0.00,0.00,VWS V14.01,2013-11-23 08:51:00,
2013-11-23 03:56:00,38.5,31.9,29.99,WNW,297,1.0,10.0,77,0.00,,---,0.00,0.00,VWS V14.01,2013-11-23 08:56:00,
2013-11-23 04:00:00,38.3,31.7,29.99,NW,310,3.0,10.0,77,0.00,,---,0.00,0.00,VWS V14.01,2013-11-23 09:00:00,
2013-11-23 04:01:00,38.3,31.7,29.99,West,267,2.0,10.0,77,0.00,,---,0.00,0.00,VWS V14.01,2013-11-23 09:01:00,
2013-11-23 04:06:00,38.2,31.3,30.00,NW,310,0.0,3.0,76,0.00,,---,0.00,0.00,VWS V14.01,2013-11-23 09:06:00,
2013-11-23 04:11:00,37.8,30.9,29.99,NW,315,6.0,7.0,76,0.00,,---,0.00,0.00,VWS V14.01,2013-11-23 09:11:00,
2013-11-23 04:16:00,37.6,30.7,29.99,WNW,282,0.0,7.0,76,0.00,,---,0.00,0.00,VWS V14.01,2013-11-23 09:16:00,
2013-11-23 04:21:00,37.3,30.4,30.00,West,270,5.0,7.0,76,0.00,,---,0.00,0.00,VWS V14.01,2013-11-23 09:21:00,
2013-11-23 04:26:00,37.0,30.1,30.00,WNW,303,0.0,7.0,76,0.00,,---,0.00,0.00,VWS V14.01,2013-11-23 09:26:00,
2013-11-23 04:30:00,36.7,29.9,30.00,NNW,327,3.0,7.0,76,0.00,,---,0.00,0.00,VWS V14.01,2013-11-23 09:30:00,
2013-11-23 04:31:00,36.8,30.0,30.00,NW,304,0.0,7.0,76,0.00,,---,0.00,0.00,VWS V14.01,2013-11-23 09:31:00,
2013-11-23 04:36:00,36.5,30.0,30.00,NNW,327,0.0,3.0,77,0.00,,---,0.00,0.00,VWS V14.01,2013-11-23 09:36:00,
2013-11-23 04:41:00,36.2,29.7,30.00,NNW,327,0.0,3.0,77,0.00,,---,0.00,0.00,VWS V14.01,2013-11-23 09:41:00,
2013-11-23 04:46:00,36.1,29.6,30.00,ENE,67,0.0,3.0,77,0.00,,---,0.00,0.00,VWS V14.01,2013-11-23 09:46:00,
2013-11-23 04:51:00,35.9,29.7,30.00,ENE,67,0.0,3.0,78,0.00,,---,0.00,0.00,VWS V14.01,2013-11-23 09:51:00,
2013-11-23 04:56:00,35.5,29.3,30.00,ENE,67,0.0,3.0,78,0.00,,---,0.00,0.00,VWS V14.01,2013-11-23 09:56:00,
2013-11-23 05:00:00,35.2,29.0,30.00,ENE,67,0.0,3.0,78,0.00,,---,0.00,0.00,VWS V14.01,2013-11-23 10:00:00,
2013-11-23 05:01:00,35.2,29.4,30.00,ENE,67,1.0,3.0,79,0.00,,---,0.00,0.00,VWS V14.01,2013-11-23 10:01:00,
2013-11-23 05:06:00,35.2,29.0,30.00,ENE,67,0.0,1.0,78,0.00,,---,0.00,0.00,VWS V14.01,2013-11-23 10:06:00,
2013-11-23 05:11:00,35.1,28.9,30.00,West,267,0.0,4.0,78,0.00,,---,0.00,0.00,VWS V14.01,2013-11-23 10:11:00,
2013-11-23 05:16:00,35.0,29.2,30.00,West,267,0.0,4.0,79,0.00,,---,0.00,0.00,VWS V14.01,2013-11-23 10:16:00,
2013-11-23 05:21:00,34.8,28.6,30.01,West,267,0.0,4.0,78,0.00,,---,0.00,0.00,VWS V14.01,2013-11-23 10:21:00,
2013-11-23 05:26:00,34.6,28.8,30.01,SSE,159,0.0,4.0,79,0.00,,---,0.00,0.00,VWS V14.01,2013-11-23 10:26:00,
2013-11-23 05:30:00,34.4,28.6,30.01,South,169,0.0,4.0,79,0.00,,---,0.00,0.00,VWS V14.01,2013-11-23 10:30:00,
2013-11-23 05:31:00,34.4,28.6,30.01,South,169,0.0,4.0,79,0.00,,---,0.00,0.00,VWS V14.01,2013-11-23 10:31:00,
2013-11-23 05:36:00,34.2,28.7,30.01,South,169,0.0,0.0,80,0.00,,---,0.00,0.00,VWS V14.01,2013-11-23 10:36:00,
2013-11-23 05:41:00,34.0,28.5,30.01,South,169,0.0,2.0,80,0.00,,---,0.00,0.00,VWS V14.01,2013-11-23 10:41:00,
2013-11-23 05:46:00,33.9,28.7,30.01,South,169,0.0,2.0,81,0.00,,---,0.00,0.00,VWS V14.01,2013-11-23 10:46:00,
2013-11-23 05:51:00,33.9,28.4,30.02,South,169,0.0,2.0,80,0.00,,---,0.00,0.00,VWS V14.01,2013-11-23 10:51:00,
2013-11-23 05:56:00,34.0,28.2,30.02,WNW,300,0.0,8.0,79,0.00,,---,0.00,0.00,VWS V14.01,2013-11-23 10:56:00,
2013-11-23 06:00:00,34.2,28.1,30.02,East,94,0.0,8.0,78,0.00,,---,0.00,0.00,VWS V14.01,2013-11-23 11:00:00,
2013-11-23 06:01:00,34.2,28.1,30.02,WNW,299,0.0,8.0,78,0.00,,---,0.00,0.00,VWS V14.01,2013-11-23 11:01:00,
2013-11-23 06:06:00,34.1,27.7,30.02,West,277,2.0,5.0,77,0.00,,---,0.00,0.00,VWS V14.01,2013-11-23 11:06:00,
2013-11-23 06:11:00,34.1,28.0,30.02,SSW,211,0.0,6.0,78,0.00,,---,0.00,0.00,VWS V14.01,2013-11-23 11:11:00,
2013-11-23 06:16:00,34.0,27.9,30.02,SSE,149,0.0,6.0,78,0.00,,---,0.00,0.00,VWS V14.01,2013-11-23 11:16:00,
2013-11-23 06:21:00,34.0,27.9,30.03,NNE,32,0.0,6.0,78,0.00,,---,0.00,0.00,VWS V14.01,2013-11-23 11:21:00,
2013-11-23 06:26:00,34.1,28.0,30.03,WSW,258,0.0,6.0,78,0.00,,---,0.00,0.00,VWS V14.01,2013-11-23 11:26:00,
2013-11-23 06:30:00,34.1,27.7,30.03,WSW,258,0.0,6.0,77,0.00,,---,0.00,0.00,VWS V14.01,2013-11-23 11:30:00,
2013-11-23 06:31:00,34.1,27.7,30.03,WSW,258,0.0,6.0,77,0.00,,---,0.00,0.00,VWS V14.01,2013-11-23 11:31:00,
2013-11-23 06:36:00,34.1,27.7,30.03,ENE,57,2.0,3.0,77,0.00,,---,0.00,0.00,VWS V14.01,2013-11-23 11:36:00,
2013-11-23 06:41:00,34.1,28.0,30.03,WNW,292,0.0,3.0,78,0.00,,---,0.00,0.00,VWS V14.01,2013-11-23 11:41:00,
2013-11-23 06:46:00,34.0,27.9,30.03,WNW,292,0.0,3.0,78,0.00,,---,0.00,0.00,VWS V14.01,2013-11-23 11:46:00,
2013-11-23 06:51:00,33.9,27.8,30.03,WNW,292,0.0,3.0,78,0.00,,---,0.00,0.00,VWS V14.01,2013-11-23 11:51:00,
2013-11-23 06:56:00,33.9,27.8,30.04,WNW,292,0.0,3.0,78,0.00,,---,0.00,0.00,VWS V14.01,2013-11-23 11:56:00,
2013-11-23 07:00:00,34.0,27.9,30.03,West,272,0.0,4.0,78,0.00,,---,0.00,0.00,VWS V14.01,2013-11-23 12:00:00,
2013-11-23 07:01:00,34.0,27.9,30.03,West,272,0.0,4.0,78,0.00,,---,0.00,0.00,VWS V14.01,2013-11-23 12:01:00,
2013-11-23 07:06:00,34.1,28.0,30.04,West,280,0.0,7.0,78,0.00,,---,0.00,0.00,VWS V14.01,2013-11-23 12:06:00,
2013-11-23 07:11:00,34.1,28.3,30.04,West,280,0.0,7.0,79,0.00,,---,0.00,5.00,VWS V14.01,2013-11-23 12:11:00,
2013-11-23 07:16:00,34.0,27.6,30.04,West,280,0.0,7.0,77,0.00,,---,0.00,7.00,VWS V14.01,2013-11-23 12:16:00,
2013-11-23 07:21:00,34.0,27.9,30.05,ENE,71,0.0,7.0,78,0.00,,---,0.00,9.00,VWS V14.01,2013-11-23 12:21:00,
2013-11-23 07:26:00,33.9,27.8,30.05,ENE,71,0.0,7.0,78,0.00,,---,0.00,12.00,VWS V14.01,2013-11-23 12:26:00,
2013-11-23 07:30:00,33.8,28.0,30.05,ENE,71,0.0,7.0,79,0.00,,---,0.00,16.00,VWS V14.01,2013-11-23 12:30:00,
2013-11-23 07:31:00,33.9,28.1,30.05,ENE,71,0.0,7.0,79,0.00,,---,0.00,16.00,VWS V14.01,2013-11-23 12:31:00,
2013-11-23 07:36:00,33.8,28.0,30.05,ENE,71,0.0,0.0,79,0.00,,---,0.00,16.00,VWS V14.01,2013-11-23 12:36:00,
2013-11-23 07:41:00,33.7,27.9,30.05,WNW,297,0.0,5.0,79,0.00,,---,0.00,21.00,VWS V14.01,2013-11-23 12:41:00,
2013-11-23 07:46:00,33.6,27.8,30.05,WNW,297,0.0,5.0,79,0.00,,---,0.00,19.00,VWS V14.01,2013-11-23 12:46:00,
2013-11-23 07:51:00,33.4,27.3,30.05,WNW,297,0.0,5.0,78,0.00,,---,0.00,26.00,VWS V14.01,2013-11-23 12:51:00,
2013-11-23 07:56:00,33.4,27.6,30.05,WNW,297,0.0,5.0,79,0.00,,---,0.00,86.00,VWS V14.01,2013-11-23 12:56:00,
2013-11-23 08:00:00,33.4,27.6,30.06,WNW,297,0.0,5.0,79,0.00,,---,0.00,116.00,VWS V14.01,2013-11-23 13:00:00,
2013-11-23 08:01:00,33.4,27.6,30.06,WNW,297,0.0,5.0,79,0.00,,---,0.00,120.00,VWS V14.01,2013-11-23 13:01:00,
2013-11-23 08:06:00,33.7,27.6,30.06,WNW,297,0.0,0.0,78,0.00,,---,0.00,146.00,VWS V14.01,2013-11-23 13:06:00,
2013-11-23 08:11:00,34.0,27.6,30.06,NW,317,0.0,5.0,77,0.00,,---,0.00,128.00,VWS V14.01,2013-11-23 13:11:00,
2013-11-23 08:16:00,34.2,27.8,30.06,NW,319,0.0,5.0,77,0.00,,---,0.00,91.00,VWS V14.01,2013-11-23 13:16:00,
2013-11-23 08:21:00,34.3,27.9,30.06,NW,319,0.0,5.0,77,0.00,,---,0.00,174.00,VWS V14.01,2013-11-23 13:21:00,
2013-11-23 08:26:00,34.6,27.8,30.06,NW,319,0.0,5.0,76,0.00,,---,0.00,223.00,VWS V14.01,2013-11-23 13:26:00,
2013-11-23 08:30:00,34.8,27.7,30.06,WNW,292,0.0,5.0,75,0.00,,---,0.00,90.00,VWS V14.01,2013-11-23 13:30:00,
2013-11-23 08:31:00,34.8,27.4,30.06,WNW,292,0.0,5.0,74,0.00,,---,0.00,95.00,VWS V14.01,2013-11-23 13:31:00,
2013-11-23 08:36:00,34.7,27.3,30.06,WSW,255,0.0,5.0,74,0.00,,---,0.00,83.00,VWS V14.01,2013-11-23 13:36:00,
2013-11-23 08:41:00,34.5,27.1,30.06,WSW,255,1.0,5.0,74,0.00,,---,0.00,98.00,VWS V14.01,2013-11-23 13:41:00,
2013-11-23 08:46:00,34.3,26.9,30.06,NE,47,0.0,5.0,74,0.00,,---,0.00,97.00,VWS V14.01,2013-11-23 13:46:00,
2013-11-23 08:51:00,34.3,27.2,30.06,ENE,64,1.0,5.0,75,0.00,,---,0.00,83.00,VWS V14.01,2013-11-23 13:51:00,
2013-11-23 08:56:00,34.3,27.2,30.06,ENE,64,0.0,5.0,75,0.00,,---,0.00,95.00,VWS V14.01,2013-11-23 13:56:00,
2013-11-23 09:00:00,34.3,27.2,30.06,WNW,291,0.0,5.0,75,0.00,,---,0.00,97.00,VWS V14.01,2013-11-23 14:00:00,
2013-11-23 09:01:00,34.3,27.2,30.06,WNW,291,0.0,5.0,75,0.00,,---,0.00,107.00,VWS V14.01,2013-11-23 14:01:00,
2013-11-23 09:06:00,34.4,27.3,30.05,WNW,291,0.0,1.0,75,0.00,,---,0.00,283.00,VWS V14.01,2013-11-23 14:06:00,
2013-11-23 09:11:00,35.1,28.3,30.06,WSW,257,3.0,3.0,76,0.00,,---,0.00,401.00,VWS V14.01,2013-11-23 14:11:00,
2013-11-23 09:16:00,35.9,28.4,30.05,WNW,289,2.0,5.0,74,0.00,,---,0.00,137.00,VWS V14.01,2013-11-23 14:16:00,
2013-11-23 09:21:00,36.1,28.0,30.05,WNW,287,0.0,5.0,72,0.00,,---,0.00,308.00,VWS V14.01,2013-11-23 14:21:00,
2013-11-23 09:26:00,35.9,27.8,30.05,North,355,1.0,5.0,72,0.00,,---,0.00,149.00,VWS V14.01,2013-11-23 14:26:00,
2013-11-23 09:30:00,35.9,28.4,30.05,WSW,254,0.0,5.0,74,0.00,,---,0.00,186.00,VWS V14.01,2013-11-23 14:30:00,
2013-11-23 09:31:00,35.8,28.0,30.05,WSW,237,0.0,5.0,73,0.00,,---,0.00,304.00,VWS V14.01,2013-11-23 14:31:00,
2013-11-23 09:36:00,36.2,28.7,30.05,SW,215,7.0,7.0,74,0.00,,---,0.00,195.00,VWS V14.01,2013-11-23 14:36:00,
2013-11-23 09:41:00,36.3,28.5,30.05,WNW,284,0.0,7.0,73,0.00,,---,0.00,163.00,VWS V14.01,2013-11-23 14:41:00,
2013-11-23 09:46:00,36.5,28.7,30.05,WNW,302,0.0,7.0,73,0.00,,---,0.00,390.00,VWS V14.01,2013-11-23 14:46:00,
2013-11-23 09:51:00,37.0,28.5,30.05,WSW,257,0.0,7.0,71,0.00,,---,0.00,394.00,VWS V14.01,2013-11-23 14:51:00,
2013-11-23 09:56:00,37.2,28.3,30.05,WSW,243,0.0,7.0,70,0.00,,---,0.00,404.00,VWS V14.01,2013-11-23 14:56:00,
2013-11-23 10:00:00,37.8,29.2,30.05,West,267,5.0,7.0,71,0.00,,---,0.00,415.00,VWS V14.01,2013-11-23 15:00:00,
2013-11-23 10:01:00,37.6,29.4,30.05,SE,138,0.0,7.0,72,0.00,,---,0.00,415.00,VWS V14.01,2013-11-23 15:01:00,
2013-11-23 10:06:00,37.9,29.0,30.05,West,273,0.0,5.0,70,0.00,,---,0.00,181.00,VWS V14.01,2013-11-23 15:06:00,
2013-11-23 10:11:00,37.6,28.4,30.04,NNW,331,0.0,6.0,69,0.00,,---,0.00,264.00,VWS V14.01,2013-11-23 15:11:00,
2013-11-23 10:16:00,37.5,28.3,30.04,WSW,244,0.0,6.0,69,0.00,,---,0.00,401.00,VWS V14.01,2013-11-23 15:16:00,
2013-11-23 10:21:00,37.7,28.5,30.04,NNW,331,0.0,6.0,69,0.00,,---,0.00,476.00,VWS V14.01,2013-11-23 15:21:00,
2013-11-23 10:26:00,37.2,28.0,30.04,SW,221,3.0,6.0,69,0.00,,---,0.00,468.00,VWS V14.01,2013-11-23 15:26:00,
2013-11-23 10:30:00,37.0,27.4,30.04,West,273,7.0,8.0,68,0.00,,---,0.00,179.00,VWS V14.01,2013-11-23 15:30:00,
2013-11-23 10:31:00,37.1,27.9,30.04,WSW,248,7.0,7.0,69,0.00,,---,0.00,230.00,VWS V14.01,2013-11-23 15:31:00,
2013-11-23 10:36:00,37.0,27.8,30.03,ESE,123,2.0,7.0,69,0.00,,---,0.00,174.00,VWS V14.01,2013-11-23 15:36:00,
2013-11-23 10:41:00,37.4,28.5,30.03,NW,317,0.0,7.0,70,0.00,,---,0.00,186.00,VWS V14.01,2013-11-23 15:41:00,
2013-11-23 10:46:00,37.3,28.4,30.03,NNW,327,0.0,7.0,70,0.00,,---,0.00,267.00,VWS V14.01,2013-11-23 15:46:00,
2013-11-23 10:51:00,37.7,28.5,30.02,NE,54,0.0,7.0,69,0.00,,---,0.00,471.00,VWS V14.01,2013-11-23 15:51:00,
2013-11-23 10:56:00,38.1,28.8,30.02,SW,233,1.0,7.0,69,0.00,,---,0.00,547.00,VWS V14.01,2013-11-23 15:56:00,
2013-11-23 11:00:00,38.8,28.4,30.02,NNW,338,0.0,7.0,66,0.00,,---,0.00,510.00,VWS V14.01,2013-11-23 16:00:00,
2013-11-23 11:01:00,38.7,29.1,30.02,West,281,0.0,7.0,68,0.00,,---,0.00,508.00,VWS V14.01,2013-11-23 16:01:00,
2013-11-23 11:06:00,38.9,28.9,30.02,West,274,3.0,3.0,67,0.00,,---,0.00,510.00,VWS V14.01,2013-11-23 16:06:00,
2013-11-23 11:11:00,39.0,29.0,30.02,SSW,209,0.0,7.0,67,0.00,,---,0.00,429.00,VWS V14.01,2013-11-23 16:11:00,
2013-11-23 11:16:00,39.0,27.9,30.01,West,273,0.0,8.0,64,0.00,,---,0.00,155.00,VWS V14.01,2013-11-23 16:16:00,
2013-11-23 11:21:00,38.9,28.1,30.01,NW,313,0.0,8.0,65,0.00,,---,0.00,158.00,VWS V14.01,2013-11-23 16:21:00,
2013-11-23 11:26:00,38.8,28.1,30.00,WNW,292,0.0,8.0,65,0.00,,---,0.00,278.00,VWS V14.01,2013-11-23 16:26:00,
2013-11-23 11:30:00,39.3,28.2,30.00,WNW,286,0.0,8.0,64,0.00,,---,0.00,185.00,VWS V14.01,2013-11-23 16:30:00,
2013-11-23 11:31:00,39.3,28.5,30.00,WNW,302,1.0,8.0,65,0.00,,---,0.00,243.00,VWS V14.01,2013-11-23 16:31:00,
2013-11-23 11:36:00,39.2,28.1,30.00,North,5,0.0,4.0,64,0.00,,---,0.00,359.00,VWS V14.01,2013-11-23 16:36:00,
2013-11-23 11:41:00,38.9,28.1,30.00,NNE,32,0.0,4.0,65,0.00,,---,0.00,221.00,VWS V14.01,2013-11-23 16:41:00,
2013-11-23 11:46:00,38.6,27.1,30.00,NE,38,1.0,7.0,63,0.00,,---,0.00,339.00,VWS V14.01,2013-11-23 16:46:00,
2013-11-23 11:51:00,38.9,28.1,29.99,NW,325,1.0,7.0,65,0.00,,---,0.00,202.00,VWS V14.01,2013-11-23 16:51:00,
2013-11-23 11:56:00,39.1,27.6,29.99,WSW,245,3.0,7.0,63,0.00,,---,0.00,253.00,VWS V14.01,2013-11-23 16:56:00,
2013-11-23 12:00:00,39.6,28.1,29.99,NW,306,0.0,7.0,63,0.00,,---,0.00,213.00,VWS V14.01,2013-11-23 17:00:00,
2013-11-23 12:01:00,39.5,27.6,29.99,WNW,282,4.0,7.0,62,0.00,,---,0.00,227.00,VWS V14.01,2013-11-23 17:01:00,
2013-11-23 12:06:00,39.8,26.2,29.98,SW,229,0.0,7.0,58,0.00,,---,0.00,243.00,VWS V14.01,2013-11-23 17:06:00,
2013-11-23 12:10:00,40.0,27.2,29.98,SW,229,1.0,7.0,60,0.00,,---,0.00,229.00,VWS V14.01,2013-11-23 17:10:00,
2013-11-23 12:15:00,40.2,27.0,29.98,WNW,292,4.0,7.0,59,0.00,,---,0.00,246.00,VWS V14.01,2013-11-23 17:15:00,
2013-11-23 12:20:00,40.0,26.4,29.97,West,259,3.0,8.0,58,0.00,,---,0.00,388.00,VWS V14.01,2013-11-23 17:20:00,
2013-11-23 12:25:00,40.5,27.7,29.97,NW,309,5.0,8.0,60,0.00,,---,0.00,237.00,VWS V14.01,2013-11-23 17:25:00,
2013-11-23 12:30:00,40.6,27.0,29.97,WSW,254,7.0,8.0,58,0.00,,---,0.00,197.00,VWS V14.01,2013-11-23 17:30:00,
2013-11-23 12:35:00,40.3,27.5,29.97,WNW,298,2.0,3.0,60,0.00,,---,0.00,229.00,VWS V14.01,2013-11-23 17:35:00,
2013-11-23 12:40:00,40.3,28.3,29.97,NNW,329,2.0,3.0,62,0.00,,---,0.00,269.00,VWS V14.01,2013-11-23 17:40:00,
2013-11-23 12:45:00,40.3,27.9,29.97,West,265,0.0,3.0,61,0.00,,---,0.00,366.00,VWS V14.01,2013-11-23 17:45:00,
2013-11-23 12:50:00,40.4,27.6,29.96,SW,232,2.0,5.0,60,0.00,,---,0.00,316.00,VWS V14.01,2013-11-23 17:50:00,
2013-11-23 12:55:00,40.1,27.4,29.96,WNW,293,1.0,6.0,60,0.00,,---,0.00,290.00,VWS V14.01,2013-11-23 17:55:00,
2013-11-23 13:00:00,39.6,26.5,29.96,WNW,296,0.0,8.0,59,0.00,,---,0.00,394.00,VWS V14.01,2013-11-23 18:00:00,
2013-11-23 13:05:00,39.5,26.4,29.96,West,277,4.0,10.0,59,0.00,,---,0.00,394.00,VWS V14.01,2013-11-23 18:05:00,
2013-11-23 13:10:00,39.6,26.1,29.95,West,267,3.0,10.0,58,0.00,,---,0.00,381.00,VWS V14.01,2013-11-23 18:10:00,
2013-11-23 13:15:00,39.7,26.1,29.95,WNW,293,4.0,10.0,58,0.00,,---,0.00,406.00,VWS V14.01,2013-11-23 18:15:00,
2013-11-23 13:20:00,39.7,26.1,29.94,West,261,7.0,10.0,58,0.00,,---,0.00,392.00,VWS V14.01,2013-11-23 18:20:00,
2013-11-23 13:25:00,39.8,27.1,29.94,WNW,301,0.0,10.0,60,0.00,,---,0.00,287.00,VWS V14.01,2013-11-23 18:25:00,
2013-11-23 13:30:00,40.2,25.3,29.93,WSW,257,0.0,10.0,55,0.00,,---,0.00,304.00,VWS V14.01,2013-11-23 18:30:00,
2013-11-23 13:35:00,40.6,25.7,29.93,West,277,0.0,6.0,55,0.00,,---,0.00,367.00,VWS V14.01,2013-11-23 18:35:00,
2013-11-23 13:40:00,40.6,25.3,29.93,NE,50,3.0,6.0,54,0.00,,---,0.00,309.00,VWS V14.01,2013-11-23 18:40:00,
2013-11-23 13:45:00,40.5,24.7,29.92,WSW,254,0.0,6.0,53,0.00,,---,0.00,278.00,VWS V14.01,2013-11-23 18:45:00,
2013-11-23 13:50:00,40.7,24.9,29.92,NE,34,0.0,6.0,53,0.00,,---,0.00,258.00,VWS V14.01,2013-11-23 18:50:00,
2013-11-23 13:55:00,40.9,24.6,29.92,West,264,4.0,10.0,52,0.00,,---,0.00,406.00,VWS V14.01,2013-11-23 18:55:00,
2013-11-23 14:00:00,40.2,23.1,29.92,WNW,288,1.0,10.0,50,0.00,,---,0.00,158.00,VWS V14.01,2013-11-23 19:00:00,
2013-11-23 14:05:00,39.8,23.6,29.92,West,270,7.0,8.0,52,0.00,,---,0.00,139.00,VWS V14.01,2013-11-23 19:05:00,
2013-11-23 14:10:00,39.6,23.4,29.91,WSW,240,0.0,9.0,52,0.00,,---,0.00,241.00,VWS V14.01,2013-11-23 19:10:00,
2013-11-23 14:15:00,39.6,23.9,29.91,NNE,15,0.0,9.0,53,0.00,,---,0.00,102.00,VWS V14.01,2013-11-23 19:15:00,
2013-11-23 14:20:00,39.5,23.4,29.92,NW,315,1.0,9.0,52,0.00,,---,0.00,84.00,VWS V14.01,2013-11-23 19:20:00,
2013-11-23 14:25:00,39.4,22.8,29.92,NNW,329,0.0,9.0,51,0.00,,---,0.00,139.00,VWS V14.01,2013-11-23 19:25:00,
2013-11-23 14:30:00,39.3,23.2,29.92,North,355,0.0,9.0,52,0.00,,---,0.00,102.00,VWS V14.01,2013-11-23 19:30:00,
2013-11-23 14:35:00,39.1,23.0,29.92,NNW,331,0.0,0.0,52,0.00,,---,0.00,104.00,VWS V14.01,2013-11-23 19:35:00,
2013-11-23 14:40:00,39.0,22.9,29.91,NW,325,0.0,9.0,52,0.00,,---,0.00,109.00,VWS V14.01,2013-11-23 19:40:00,
2013-11-23 14:45:00,39.0,21.0,29.92,WNW,284,4.0,9.0,48,0.00,,---,0.00,90.00,VWS V14.01,2013-11-23 19:45:00,
2013-11-23 14:50:00,38.9,20.4,29.92,WSW,252,10.0,10.0,47,0.00,,---,0.00,100.00,VWS V14.01,2013-11-23 19:50:00,
2013-11-23 14:55:00,38.8,20.3,29.92,WSW,243,5.0,13.0,47,0.00,,---,0.00,90.00,VWS V14.01,2013-11-23 19:55:00,
2013-11-23 15:00:00,38.7,20.2,29.91,West,266,0.0,13.0,47,0.00,,---,0.00,86.00,VWS V14.01,2013-11-23 20:00:00,
2013-11-23 15:05:00,38.6,19.1,29.91,WSW,248,12.0,12.0,45,0.00,,---,0.00,79.00,VWS V14.01,2013-11-23 20:05:00,
2013-11-23 15:10:00,38.4,19.9,29.91,WNW,283,4.0,12.0,47,0.00,,---,0.00,69.00,VWS V14.01,2013-11-23 20:10:00,
2013-11-23 15:15:00,38.1,19.7,29.91,SW,231,5.0,12.0,47,0.00,,---,0.00,62.00,VWS V14.01,2013-11-23 20:15:00,
2013-11-23 15:20:00,37.9,20.0,29.91,West,265,3.0,12.0,48,0.00,,---,0.00,56.00,VWS V14.01,2013-11-23 20:20:00,
2013-11-23 15:25:00,37.8,19.9,29.90,WNW,292,4.0,12.0,48,0.00,,---,0.00,44.00,VWS V14.01,2013-11-23 20:25:00,
2013-11-23 15:30:00,37.7,19.8,29.90,SW,233,2.0,12.0,48,0.00,,---,0.00,39.00,VWS V14.01,2013-11-23 20:30:00,
2013-11-23 15:35:00,37.4,19.5,29.90,South,189,4.0,5.0,48,0.00,,---,0.00,35.00,VWS V14.01,2013-11-23 20:35:00,
2013-11-23 15:40:00,37.2,19.3,29.90,SSW,194,3.0,9.0,48,0.00,,---,0.00,28.00,VWS V14.01,2013-11-23 20:40:00,
2013-11-23 15:45:00,37.0,19.1,29.90,West,266,3.0,9.0,48,0.00,,---,0.00,21.00,VWS V14.01,2013-11-23 20:45:00,
2013-11-23 15:50:00,36.8,19.5,29.89,WSW,250,2.0,9.0,49,0.00,,---,0.00,18.00,VWS V14.01,2013-11-23 20:50:00,
2013-11-23 15:55:00,36.7,19.8,29.89,WSW,257,4.0,9.0,50,0.00,,---,0.00,14.00,VWS V14.01,2013-11-23 20:55:00,
2013-11-23 16:00:00,36.6,19.7,29.89,West,265,3.0,9.0,50,0.00,,---,0.00,11.00,VWS V14.01,2013-11-23 21:00:00,
2013-11-23 16:05:00,36.5,20.1,29.89,West,265,0.0,3.0,51,0.00,,---,0.00,5.00,VWS V14.01,2013-11-23 21:05:00,
2013-11-23 16:10:00,36.5,19.6,29.89,SSW,211,2.0,4.0,50,0.00,,---,0.00,0.00,VWS V14.01,2013-11-23 21:10:00,
2013-11-23 16:15:00,36.5,20.1,29.89,SSW,213,0.0,4.0,51,0.00,,---,0.00,0.00,VWS V14.01,2013-11-23 21:15:00,
2013-11-23 16:20:00,36.5,20.1,29.89,SSW,213,0.0,4.0,51,0.00,,---,0.00,0.00,VWS V14.01,2013-11-23 21:20:00,
2013-11-23 16:25:00,36.4,20.5,29.89,SSW,213,0.0,4.0,52,0.00,,---,0.00,0.00,VWS V14.01,2013-11-23 21:25:00,
2013-11-23 16:30:00,36.4,20.5,29.88,SSW,213,0.0,4.0,52,0.00,,---,0.00,0.00,VWS V14.01,2013-11-23 21:30:00,
2013-11-23 16:35:00,36.3,20.8,29.88,SSW,194,2.0,3.0,53,0.00,,---,0.00,0.00,VWS V14.01,2013-11-23 21:35:00,
2013-11-23 16:40:00,36.4,20.5,29.88,NW,306,0.0,4.0,52,0.00,,---,0.00,0.00,VWS V14.01,2013-11-23 21:40:00,
2013-11-23 16:45:00,36.4,20.9,29.89,WSW,240,4.0,5.0,53,0.00,,---,0.00,0.00,VWS V14.01,2013-11-23 21:45:00,
2013-11-23 16:50:00,36.4,21.4,29.89,West,265,0.0,5.0,54,0.00,,---,0.00,0.00,VWS V14.01,2013-11-23 21:50:00,
2013-11-23 16:55:00,36.3,21.7,29.90,WSW,240,5.0,10.0,55,0.00,,---,0.00,0.00,VWS V14.01,2013-11-23 21:55:00,
2013-11-23 17:00:00,36.1,24.0,29.90,WNW,290,11.0,11.0,61,0.00,,---,0.00,0.00,VWS V14.01,2013-11-23 22:00:00,
2013-11-23 17:05:00,35.6,24.3,29.91,WNW,284,4.0,7.0,63,0.00,,---,0.00,0.00,VWS V14.01,2013-11-23 22:05:00,
2013-11-23 17:10:00,35.3,24.7,29.91,West,267,3.0,9.0,65,0.00,,---,0.00,0.00,VWS V14.01,2013-11-23 22:10:00,
2013-11-23 17:15:00,35.2,25.4,29.91,West,275,0.0,10.0,67,0.00,,---,0.00,0.00,VWS V14.01,2013-11-23 22:15:00,
2013-11-23 17:20:00,34.9,25.8,29.91,West,273,2.0,10.0,69,0.00,,---,0.00,0.00,VWS V14.01,2013-11-23 22:20:00,
2013-11-23 17:25:00,34.6,25.8,29.91,WNW,302,5.0,10.0,70,0.00,,---,0.00,0.00,VWS V14.01,2013-11-23 22:25:00,
2013-11-23 17:30:00,34.4,25.6,29.91,SSW,204,6.0,10.0,70,0.00,,---,0.00,0.00,VWS V14.01,2013-11-23 22:30:00,
2013-11-23 17:35:00,34.3,25.5,29.91,West,271,3.0,6.0,70,0.00,,---,0.00,0.00,VWS V14.01,2013-11-23 22:35:00,
2013-11-23 17:40:00,34.2,25.8,29.91,WSW,255,0.0,7.0,71,0.00,,---,0.00,0.00,VWS V14.01,2013-11-23 22:40:00,
2013-11-23 17:45:00,34.1,25.7,29.91,WSW,255,0.0,7.0,71,0.00,,---,0.00,0.00,VWS V14.01,2013-11-23 22:45:00,
2013-11-23 17:50:00,34.1,25.7,29.91,WSW,255,0.0,7.0,71,0.00,,---,0.00,0.00,VWS V14.01,2013-11-23 22:50:00,
2013-11-23 17:55:00,34.1,25.7,29.91,NW,312,3.0,7.0,71,0.00,,---,0.00,0.00,VWS V14.01,2013-11-23 22:55:00,
2013-11-23 18:00:00,34.0,25.3,29.91,West,277,3.0,9.0,70,0.00,,---,0.00,0.00,VWS V14.01,2013-11-23 23:00:00,
2013-11-23 18:05:00,33.9,25.5,29.91,WSW,241,5.0,6.0,71,0.00,,---,0.00,0.00,VWS V14.01,2013-11-23 23:05:00,
2013-11-23 18:09:00,33.7,25.3,29.91,West,277,2.0,7.0,71,0.00,,---,0.00,0.00,VWS V14.01,2013-11-23 23:09:00,
2013-11-23 18:14:00,33.5,25.5,29.91,WSW,242,2.0,7.0,72,0.00,,---,0.00,0.00,VWS V14.01,2013-11-23 23:14:00,
2013-11-23 18:19:00,33.4,25.7,29.91,West,272,0.0,7.0,73,0.00,,---,0.00,0.00,VWS V14.01,2013-11-23 23:19:00,
2013-11-23 18:24:00,33.3,25.6,29.92,NW,314,9.0,10.0,73,0.00,,---,0.00,0.00,VWS V14.01,2013-11-23 23:24:00,
2013-11-23 18:29:00,33.2,26.5,29.92,NNW,336,3.0,10.0,76,0.00,,---,0.00,0.00,VWS V14.01,2013-11-23 23:29:00,
2013-11-23 18:30:00,32.7,27.2,29.93,North,350,0.0,15.0,80,0.00,,---,0.00,0.00,VWS V14.01,2013-11-23 23:30:00,
2013-11-23 18:34:00,32.5,27.3,29.93,North,350,0.0,2.0,81,0.00,,---,0.00,0.00,VWS V14.01,2013-11-23 23:34:00,
2013-11-23 18:39:00,31.5,27.5,29.92,North,355,0.0,3.0,85,0.00,,---,0.00,0.00,VWS V14.01,2013-11-23 23:39:00,
2013-11-23 18:44:00,31.0,27.6,29.92,SE,140,0.0,3.0,87,0.00,,---,0.00,0.00,VWS V14.01,2013-11-23 23:44:00,
2013-11-23 18:49:00,30.6,27.5,29.92,SE,140,0.0,3.0,88,0.00,,---,0.00,0.00,VWS V14.01,2013-11-23 23:49:00,
2013-11-23 18:53:00,30.4,27.3,29.92,NW,313,0.0,3.0,88,0.00,,---,0.00,0.00,VWS V14.01,2013-11-23 23:53:00,
2013-11-23 18:58:00,30.1,27.0,29.92,NW,313,0.0,3.0,88,0.00,,---,0.00,0.00,VWS V14.01,2013-11-23 23:58:00,
2013-11-23 19:00:00,29.9,26.8,29.92,ENE,74,0.0,3.0,88,0.00,,---,0.00,0.00,VWS V14.01,2013-11-24 00:00:00,
2013-11-23 19:03:00,29.9,26.8,29.92,ENE,74,0.0,0.0,88,0.00,,---,0.00,0.00,VWS V14.01,2013-11-24 00:03:00,
2013-11-23 19:08:00,29.8,26.4,29.93,WNW,289,0.0,4.0,87,0.00,,---,0.00,0.00,VWS V14.01,2013-11-24 00:08:00,
2013-11-23 19:13:00,29.9,26.5,29.93,NNW,346,0.0,4.0,87,0.00,,---,0.00,0.00,VWS V14.01,2013-11-24 00:13:00,
2013-11-23 19:18:00,30.1,26.1,29.93,NNW,348,0.0,4.0,85,0.00,,---,0.00,0.00,VWS V14.01,2013-11-24 00:18:00,
2013-11-23 19:23:00,30.3,25.8,29.93,NW,315,4.0,4.0,83,0.00,,---,0.00,0.00,VWS V14.01,2013-11-24 00:23:00,
2013-11-23 19:28:00,30.4,25.3,29.93,West,275,0.0,4.0,81,0.00,,---,0.00,0.00,VWS V14.01,2013-11-24 00:28:00,
2013-11-23 19:30:00,30.4,25.3,29.93,West,275,0.0,4.0,81,0.00,,---,0.00,0.00,VWS V14.01,2013-11-24 00:30:00,
2013-11-23 19:33:00,30.4,25.0,29.93,West,275,0.0,0.0,80,0.00,,---,0.00,0.00,VWS V14.01,2013-11-24 00:33:00,
2013-11-23 19:38:00,30.4,24.7,29.92,West,275,0.0,2.0,79,0.00,,---,0.00,0.00,VWS V14.01,2013-11-24 00:38:00,
2013-11-23 19:43:00,30.4,24.4,29.92,West,264,4.0,8.0,78,0.00,,---,0.00,0.00,VWS V14.01,2013-11-24 00:43:00,
2013-11-23 19:48:00,30.6,24.3,29.93,West,279,0.0,8.0,77,0.00,,---,0.00,0.00,VWS V14.01,2013-11-24 00:48:00,
2013-11-23 19:53:00,30.7,24.7,29.93,NNE,26,0.0,8.0,78,0.00,,---,0.00,0.00,VWS V14.01,2013-11-24 00:53:00,
2013-11-23 19:58:00,30.6,24.6,29.93,NNW,346,0.0,8.0,78,0.00,,---,0.00,0.00,VWS V14.01,2013-11-24 00:58:00,
2013-11-23 20:00:00,30.4,24.7,29.93,West,277,0.0,8.0,79,0.00,,---,0.00,0.00,VWS V14.01,2013-11-24 01:00:00,
2013-11-23 20:03:00,30.4,24.7,29.93,West,277,0.0,1.0,79,0.00,,---,0.00,0.00,VWS V14.01,2013-11-24 01:03:00,
2013-11-23 20:08:00,30.2,24.8,29.94,SSE,149,0.0,2.0,80,0.00,,---,0.00,0.00,VWS V14.01,2013-11-24 01:08:00,
2013-11-23 20:13:00,30.0,24.6,29.94,WNW,297,1.0,3.0,80,0.00,,---,0.00,0.00,VWS V14.01,2013-11-24 01:13:00,
2013-11-23 20:18:00,29.7,24.3,29.94,WNW,297,0.0,3.0,80,0.00,,---,0.00,0.00,VWS V14.01,2013-11-24 01:18:00,
2013-11-23 20:23:00,29.4,24.0,29.94,NNW,327,0.0,8.0,80,0.00,,---,0.00,0.00,VWS V14.01,2013-11-24 01:23:00,
2013-11-23 20:28:00,29.2,23.5,29.94,SW,233,0.0,8.0,79,0.00,,---,0.00,0.00,VWS V14.01,2013-11-24 01:28:00,
2013-11-23 20:30:00,29.0,23.0,29.94,SW,236,2.0,8.0,78,0.00,,---,0.00,0.00,VWS V14.01,2013-11-24 01:30:00,
2013-11-23 20:33:00,29.0,22.7,29.94,WSW,257,2.0,6.0,77,0.00,,---,0.00,0.00,VWS V14.01,2013-11-24 01:33:00,
2013-11-23 20:38:00,28.9,22.3,29.94,West,264,3.0,7.0,76,0.00,,---,0.00,0.00,VWS V14.01,2013-11-24 01:38:00,
2013-11-23 20:43:00,28.6,21.7,29.94,WNW,288,2.0,7.0,75,0.00,,---,0.00,0.00,VWS V14.01,2013-11-24 01:43:00,
2013-11-23 20:48:00,28.4,21.8,29.95,South,175,0.0,7.0,76,0.00,,---,0.00,0.00,VWS V14.01,2013-11-24 01:48:00,
2013-11-23 20:53:00,28.2,21.9,29.95,NNW,327,0.0,7.0,77,0.00,,---,0.00,0.00,VWS V14.01,2013-11-24 01:53:00,
2013-11-23 20:58:00,28.0,22.3,29.95,West,263,1.0,7.0,79,0.00,,---,0.00,0.00,VWS V14.01,2013-11-24 01:58:00,
2013-11-23 21:00:00,27.8,22.7,29.95,WSW,238,2.0,7.0,81,0.00,,---,0.00,0.00,VWS V14.01,2013-11-24 02:00:00,
2013-11-23 21:03:00,27.7,22.6,29.95,WNW,302,2.0,4.0,81,0.00,,---,0.00,0.00,VWS V14.01,2013-11-24 02:03:00,
2013-11-23 21:08:00,27.6,22.8,29.95,WSW,255,1.0,9.0,82,0.00,,---,0.00,0.00,VWS V14.01,2013-11-24 02:08:00,
2013-11-23 21:13:00,27.6,22.8,29.95,West,263,4.0,9.0,82,0.00,,---,0.00,0.00,VWS V14.01,2013-11-24 02:13:00,
2013-11-23 21:18:00,27.6,23.1,29.95,SW,229,1.0,9.0,83,0.00,,---,0.00,0.00,VWS V14.01,2013-11-24 02:18:00,
2013-11-23 21:23:00,27.4,23.5,29.95,West,261,3.0,9.0,85,0.00,,---,0.00,0.00,VWS V14.01,2013-11-24 02:23:00,
2013-11-23 21:28:00,27.1,23.8,29.95,West,267,3.0,10.0,87,0.00,,---,0.00,0.00,VWS V14.01,2013-11-24 02:28:00,
2013-11-23 21:30:00,26.7,23.6,29.95,WNW,282,0.0,10.0,88,0.00,,---,0.00,0.00,VWS V14.01,2013-11-24 02:30:00,
2013-11-23 21:33:00,26.7,23.4,29.95,WNW,303,2.0,6.0,87,0.00,,---,0.00,0.00,VWS V14.01,2013-11-24 02:33:00,
2013-11-23 21:38:00,26.5,23.2,29.95,WSW,244,0.0,6.0,87,0.00,,---,0.00,0.00,VWS V14.01,2013-11-24 02:38:00,
2013-11-23 21:43:00,26.3,22.7,29.95,West,272,0.0,6.0,86,0.00,,---,0.00,0.00,VWS V14.01,2013-11-24 02:43:00,
2013-11-23 21:48:00,26.2,22.3,29.96,ESE,113,0.0,7.0,85,0.00,,---,0.00,0.00,VWS V14.01,2013-11-24 02:48:00,
2013-11-23 21:53:00,26.0,22.1,29.95,WNW,284,0.0,7.0,85,0.00,,---,0.00,0.00,VWS V14.01,2013-11-24 02:53:00,
2013-11-23 22:03:00,26.0,21.8,29.95,WNW,284,0.0,7.0,84,0.00,,---,0.00,0.00,VWS V14.01,2013-11-24 03:03:00,
2013-11-23 22:08:00,25.7,20.7,29.96,WNW,283,3.0,7.0,81,0.00,,---,0.00,0.00,VWS V14.01,2013-11-24 03:08:00,
2013-11-23 22:13:00,25.9,20.0,29.96,NW,310,1.0,9.0,78,0.00,,---,0.00,0.00,VWS V14.01,2013-11-24 03:13:00,
2013-11-23 22:18:00,26.0,18.5,29.96,WNW,300,2.0,9.0,73,0.00,,---,0.00,0.00,VWS V14.01,2013-11-24 03:18:00,
2013-11-23 22:23:00,26.1,18.0,29.96,West,275,0.0,9.0,71,0.00,,---,0.00,0.00,VWS V14.01,2013-11-24 03:23:00,
2013-11-23 22:28:00,26.1,17.0,29.95,West,280,1.0,9.0,68,0.00,,---,0.00,0.00,VWS V14.01,2013-11-24 03:28:00,
2013-11-23 22:30:00,26.1,16.7,29.96,WNW,290,5.0,9.0,67,0.00,,---,0.00,0.00,VWS V14.01,2013-11-24 03:30:00,
2013-11-23 22:33:00,26.1,16.7,29.95,NW,321,0.0,5.0,67,0.00,,---,0.00,0.00,VWS V14.01,2013-11-24 03:33:00,
2013-11-23 22:38:00,26.0,16.2,29.96,WSW,252,0.0,6.0,66,0.00,,---,0.00,0.00,VWS V14.01,2013-11-24 03:38:00,
2013-11-23 22:43:00,26.0,15.9,29.96,East,88,3.0,8.0,65,0.00,,---,0.00,0.00,VWS V14.01,2013-11-24 03:43:00,
2013-11-23 22:48:00,26.1,15.6,29.96,SSE,167,3.0,10.0,64,0.00,,---,0.00,0.00,VWS V14.01,2013-11-24 03:48:00,
2013-11-23 22:53:00,26.1,14.9,29.96,NNW,348,1.0,14.0,62,0.00,,---,0.00,0.00,VWS V14.01,2013-11-24 03:53:00,
2013-11-23 22:58:00,26.0,14.8,29.96,WSW,251,0.0,14.0,62,0.00,,---,0.00,0.00,VWS V14.01,2013-11-24 03:58:00,
2013-11-23 23:00:00,25.8,14.6,29.96,NNW,332,6.0,14.0,62,0.00,,---,0.00,0.00,VWS V14.01,2013-11-24 04:00:00,
2013-11-23 23:03:00,25.8,14.2,29.96,NNW,337,1.0,6.0,61,0.00,,---,0.00,0.00,VWS V14.01,2013-11-24 04:03:00,
2013-11-23 23:08:00,25.8,14.6,29.97,NW,322,5.0,8.0,62,0.00,,---,0.00,0.00,VWS V14.01,2013-11-24 04:08:00,
2013-11-23 23:13:00,25.9,14.7,29.97,NW,315,1.0,8.0,62,0.00,,---,0.00,0.00,VWS V14.01,2013-11-24 04:13:00,
2013-11-23 23:18:00,25.9,15.1,29.97,WSW,257,8.0,10.0,63,0.00,,---,0.00,0.00,VWS V14.01,2013-11-24 04:18:00,
2013-11-23 23:23:00,25.6,15.1,29.97,SE,142,2.0,10.0,64,0.00,,---,0.00,0.00,VWS V14.01,2013-11-24 04:23:00,
2013-11-23 23:28:00,25.1,15.0,29.98,NE,46,0.0,10.0,65,0.00,,---,0.00,0.00,VWS V14.01,2013-11-24 04:28:00,
2013-11-23 23:30:00,24.9,15.5,29.98,WNW,288,3.0,10.0,67,0.00,,---,0.00,0.00,VWS V14.01,2013-11-24 04:30:00,
2013-11-23 23:33:00,24.8,15.4,29.98,West,279,2.0,9.0,67,0.00,,---,0.00,0.00,VWS V14.01,2013-11-24 04:33:00,
2013-11-23 23:38:00,24.6,15.2,29.98,WNW,290,1.0,9.0,67,0.00,,---,0.00,0.00,VWS V14.01,2013-11-24 04:38:00,
2013-11-23 23:43:00,24.4,15.7,29.97,SW,233,0.0,9.0,69,0.00,,---,0.00,0.00,VWS V14.01,2013-11-24 04:43:00,
2013-11-23 23:48:00,24.2,15.5,29.97,WNW,298,6.0,9.0,69,0.00,,---,0.00,0.00,VWS V14.01,2013-11-24 04:48:00,
2013-11-23 23:53:00,23.9,15.6,29.98,West,277,5.0,9.0,70,0.00,,---,0.00,0.00,VWS V14.01,2013-11-24 04:53:00,
2013-11-23 23:58:00,23.7,15.4,29.98,NNW,340,5.0,9.0,70,0.00,,---,0.00,0.00,VWS V14.01,2013-11-24 04:58:00,